QPF
0.01 0.01 0.01 0.02 0.03 0.03 0.04 0.05 0.04 0.03 0.02 0.03 0.03 0.03 0.03 0.04 0.03 0.03 0.02 0.02 0.02 0.04 0.05 0.04 0.04 0.04 0.03 0.04 0.04 0.02 0.02 0.02 0.01 0.01 0.01 0.01 0.02 0.01 0.01 0.01 0.01 0.02 0.02
0.00 0.01 0.02 0.03 0.04 0.04 0.05 0.05 0.04 0.02 0.02 0.02 0.02 0.02 0.02 0.02 0.02 0.02 0.01 0.02 0.02 0.04 0.03 0.04 0.04 0.03 0.03 0.02 0.02 0.02 0.01 0.01 0.01 0.00 0.00 0.00 0.01 0.01 0.02 0.01 0.01 0.02 0.02
0.01 0.01 0.03 0.03 0.04 0.04 0.05 0.05 0.04 0.03 0.03 0.02 0.02 0.02 0.02 0.02 0.02 0.02 0.02 0.02 0.03 0.03 0.02 0.03 0.03 0.03 0.02 0.02 0.02 0.01 0.01 0.01 0.00 0.00 0.00 0.01 0.01 0.01 0.03 0.02 0.01 0.02 0.02
0.01 0.01 0.02 0.04 0.04 0.05 0.06 0.05 0.04 0.03 0.03 0.02 0.02 0.02 0.02 0.02 0.03 0.02 0.02 0.02 0.02 0.02 0.02 0.02 0.02 0.03 0.02 0.02 0.01 0.01 0.01 0.01 0.00 0.00 0.00 0.00 0.01 0.02 0.03 0.03 0.02 0.02 0.02
0.01 0.01 0.02 0.04 0.04 0.06 0.06 0.05 0.04 0.04 0.03 0.02 0.02 0.02 0.02 0.02 0.03 0.03 0.03 0.02 0.01 0.01 0.01 0.01 0.01 0.02 0.02 0.02 0.01 0.02 0.02 0.01 0.01 0.00 0.00 0.00 0.01 0.03 0.03 0.04 0.02 0.02 0.02
0.00 0.01 0.01 0.03 0.05 0.05 0.06 0.06 0.05 0.05 0.04 0.03 0.03 0.02 0.02 0.02 0.03 0.04 0.03 0.02 0.01 0.01 0.01 0.01 0.01 0.01 0.02 0.02 0.02 0.02 0.02 0.01 0.01 0.01 0.00 0.00 0.01 0.03 0.04 0.04 0.03 0.02 0.02
0.00 0.00 0.01 0.02 0.04 0.05 0.06 0.06 0.06 0.07 0.06 0.05 0.04 0.03 0.02 0.02 0.03 0.03 0.02 0.02 0.02 0.01 0.01 0.01 0.01 0.01 0.01 0.01 0.02 0.02 0.01 0.01 0.00 0.01 0.01 0.01 0.01 0.02 0.04 0.04 0.03 0.01 0.01
0.00 0.00 0.00 0.01 0.03 0.05 0.06 0.07 0.06 0.07 0.06 0.06 0.06 0.05 0.04 0.03 0.04 0.03 0.03 0.03 0.02 0.01 0.01 0.01 0.01 0.01 0.01 0.01 0.01 0.01 0.01 0.00 0.00 0.00 0.01 0.01 0.01 0.02 0.03 0.03 0.03 0.02 0.01
0.00 0.00 0.00 0.01 0.02 0.04 0.05 0.07 0.07 0.07 0.06 0.05 0.05 0.05 0.05 0.04 0.04 0.03 0.03 0.03 0.02 0.01 0.01 0.01 0.01 0.00 0.00 0.01 0.01 0.01 0.00 0.00 0.00 0.00 0.00 0.01 0.01 0.03 0.04 0.03 0.03 0.03 0.02
0.01 0.00 0.00 0.01 0.01 0.03 0.05 0.06 0.07 0.07 0.07 0.06 0.05 0.04 0.04 0.03 0.02 0.02 0.02 0.02 0.02 0.02 0.01 0.00 0.01 0.01 0.00 0.00 0.01 0.00 0.00 0.00 0.00 0.00 0.01 0.01 0.01 0.03 0.04 0.04 0.03 0.03 0.02
0.01 0.01 0.01 0.01 0.01 0.02 0.04 0.08 0.08 0.07 0.07 0.07 0.06 0.05 0.04 0.03 0.02 0.01 0.01 0.01 0.02 0.02 0.01 0.00 0.01 0.01 0.00 0.00 0.00 0.00 0.00 0.01 0.00 0.00 0.01 0.01 0.02 0.05 0.05 0.04 0.03 0.03 0.02
0.01 0.01 0.01 0.01 0.02 0.02 0.04 0.06 0.07 0.06 0.07 0.08 0.07 0.06 0.05 0.04 0.03 0.02 0.01 0.01 0.02 0.02 0.01 0.00 0.00 0.00 0.00 0.00 0.00 0.01 0.01 0.01 0.01 0.01 0.01 0.01 0.03 0.05 0.06 0.05 0.04 0.03 0.02
0.01 0.01 0.01 0.01 0.02 0.02 0.02 0.04 0.06 0.06 0.07 0.08 0.07 0.06 0.05 0.05 0.03 0.02 0.01 0.01 0.01 0.01 0.01 0.00 0.00 0.00 0.00 0.00 0.00 0.01 0.01 0.01 0.01 0.02 0.01 0.01 0.03 0.05 0.06 0.06 0.04 0.04 0.03
0.01 0.01 0.01 0.01 0.02 0.03 0.02 0.03 0.06 0.05 0.06 0.07 0.07 0.06 0.05 0.05 0.04 0.02 0.02 0.01 0.01 0.01 0.00 0.00 0.00 0.00 0.00 0.00 0.00 0.00 0.01 0.01 0.01 0.02 0.02 0.02 0.03 0.05 0.07 0.06 0.05 0.04 0.03
0.02 0.02 0.02 0.02 0.03 0.03 0.02 0.03 0.05 0.06 0.05 0.04 0.04 0.05 0.05 0.06 0.05 0.03 0.02 0.01 0.01 0.00 0.00 0.00 0.00 0.00 0.00 0.00 0.01 0.01 0.01 0.01 0.01 0.02 0.02 0.02 0.03 0.04 0.06 0.08 0.07 0.05 0.03
0.02 0.03 0.03 0.03 0.03 0.04 0.03 0.02 0.04 0.06 0.05 0.05 0.03 0.03 0.05 0.06 0.06 0.05 0.02 0.02 0.01 0.00 0.00 0.00 0.00 0.00 0.00 0.00 0.01 0.01 0.01 0.01 0.01 0.01 0.02 0.03 0.03 0.03 0.04 0.07 0.09 0.07 0.05
0.02 0.02 0.03 0.04 0.04 0.05 0.06 0.04 0.04 0.06 0.06 0.05 0.04 0.02 0.02 0.05 0.06 0.06 0.04 0.03 0.01 0.00 0.00 0.00 0.00 0.00 0.00 0.00 0.01 0.01 0.01 0.01 0.01 0.01 0.01 0.02 0.04 0.03 0.03 0.05 0.08 0.08 0.07
0.02 0.02 0.03 0.04 0.05 0.06 0.06 0.05 0.05 0.07 0.07 0.06 0.04 0.03 0.02 0.02 0.05 0.07 0.06 0.04 0.02 0.01 0.00 0.00 0.00 0.00 0.00 0.00 0.01 0.01 0.01 0.01 0.01 0.01 0.02 0.01 0.03 0.03 0.03 0.04 0.05 0.07 0.08
0.02 0.02 0.03 0.04 0.05 0.06 0.06 0.05 0.05 0.08 0.09 0.07 0.05 0.03 0.02 0.02 0.02 0.05 0.06 0.05 0.03 0.02 0.01 0.00 0.00 0.00 0.00 0.00 0.00 0.01 0.01 0.01 0.01 0.01 0.01 0.01 0.02 0.02 0.03 0.03 0.03 0.05 0.07
0.02 0.02 0.04 0.04 0.06 0.06 0.07 0.07 0.06 0.08 0.09 0.08 0.07 0.04 0.02 0.02 0.02 0.03 0.06 0.06 0.04 0.03 0.02 0.01 0.01 0.01 0.01 0.01 0.01 0.01 0.01 0.01 0.01 0.01 0.01 0.01 0.02 0.02 0.03 0.03 0.03 0.04 0.04
0.02 0.02 0.03 0.03 0.04 0.05 0.07 0.07 0.07 0.08 0.09 0.08 0.08 0.07 0.04 0.02 0.02 0.02 0.05 0.07 0.06 0.04 0.03 0.02 0.01 0.01 0.01 0.01 0.01 0.02 0.02 0.02 0.02 0.01 0.01 0.01 0.02 0.02 0.03 0.03 0.04 0.04 0.03
0.02 0.02 0.02 0.03 0.04 0.04 0.05 0.07 0.07 0.07 0.07 0.07 0.07 0.07 0.06 0.03 0.02 0.02 0.04 0.06 0.07 0.05 0.04 0.03 0.02 0.02 0.02 0.01 0.01 0.02 0.03 0.03 0.03 0.02 0.02 0.02 0.02 0.02 0.03 0.04 0.05 0.05 0.04
0.02 0.02 0.03 0.03 0.04 0.04 0.04 0.05 0.07 0.08 0.08 0.09 0.08 0.07 0.07 0.05 0.03 0.02 0.02 0.04 0.06 0.07 0.06 0.04 0.03 0.02 0.02 0.01 0.01 0.02 0.03 0.03 0.03 0.03 0.03 0.03 0.02 0.02 0.03 0.04 0.05 0.06 0.05
0.02 0.01 0.02 0.03 0.03 0.04 0.04 0.04 0.05 0.06 0.07 0.08 0.09 0.07 0.07 0.06 0.04 0.03 0.02 0.03 0.05 0.07 0.07 0.05 0.04 0.03 0.03 0.02 0.02 0.02 0.01 0.01 0.02 0.03 0.04 0.04 0.04 0.04 0.03 0.04 0.04 0.05 0.06
0.02 0.01 0.02 0.02 0.03 0.03 0.04 0.04 0.04 0.05 0.07 0.08 0.09 0.08 0.08 0.08 0.07 0.05 0.03 0.03 0.04 0.06 0.06 0.06 0.05 0.04 0.03 0.04 0.03 0.03 0.02 0.01 0.02 0.02 0.03 0.04 0.05 0.05 0.05 0.05 0.05 0.04 0.05
0.02 0.01 0.02 0.02 0.02 0.02 0.03 0.03 0.03 0.04 0.06 0.09 0.09 0.09 0.08 0.08 0.08 0.08 0.07 0.04 0.04 0.04 0.06 0.06 0.06 0.05 0.04 0.04 0.05 0.05 0.05 0.03 0.02 0.02 0.02 0.03 0.05 0.05 0.05 0.04 0.05 0.07 0.06
MSLP
1028.90 1029.03 1028.86 1028.44 1027.90 1027.32 1026.77 1026.27 1025.83 1025.39 1024.91 1024.37 1023.75 1023.08 1022.40 1021.76 1021.19 1020.72 1020.33 1020.02 1019.75 1019.48 1019.21 1018.92 1018.65 1018.39 1018.18 1018.03 1017.94 1017.89 1017.88 1017.87 1017.87 1017.87 1017.87 1017.88 1017.91 1017.98 1018.06 1018.15 1018.25 1018.34 1018.41
1029.01 1029.11 1028.94 1028.55 1028.05 1027.51 1027.00 1026.52 1026.06 1025.61 1025.12 1024.57 1023.97 1023.35 1022.74 1022.18 1021.69 1021.27 1020.91 1020.58 1020.26 1019.93 1019.57 1019.21 1018.87 1018.58 1018.35 1018.19 1018.10 1018.05 1018.03 1018.01 1018.00 1017.98 1017.98 1018.00 1018.06 1018.16 1018.28 1018.41 1018.52 1018.62 1018.70
1029.37 1029.43 1029.22 1028.83 1028.33 1027.80 1027.28 1026.78 1026.31 1025.83 1025.33 1024.79 1024.23 1023.66 1023.12 1022.63 1022.20 1021.82 1021.46 1021.10 1020.72 1020.30 1019.86 1019.43 1019.04 1018.72 1018.48 1018.33 1018.24 1018.19 1018.16 1018.13 1018.09 1018.05 1018.04 1018.06 1018.14 1018.26 1018.41 1018.57 1018.72 1018.84 1018.92
1029.92 1029.90 1029.65 1029.22 1028.70 1028.14 1027.60 1027.09 1026.59 1026.09 1025.58 1025.05 1024.52 1024.01 1023.53 1023.10 1022.71 1022.35 1021.97 1021.57 1021.11 1020.61 1020.10 1019.61 1019.18 1018.85 1018.61 1018.47 1018.39 1018.34 1018.30 1018.24 1018.17 1018.10 1018.07 1018.09 1018.17 1018.30 1018.48 1018.67 1018.85 1018.99 1019.10
1030.50 1030.41 1030.11 1029.64 1029.09 1028.51 1027.95 1027.41 1026.89 1026.37 1025.86 1025.34 1024.84 1024.37 1023.94 1023.55 1023.19 1022.83 1022.43 1021.97 1021.46 1020.90 1020.33 1019.80 1019.35 1019.01 1018.78 1018.65 1018.58 1018.52 1018.46 1018.37 1018.26 1018.16 1018.09 1018.09 1018.17 1018.32 1018.52 1018.74 1018.95 1019.12 1019.25
1030.99 1030.84 1030.49 1029.99 1029.43 1028.85 1028.29 1027.74 1027.21 1026.69 1026.17 1025.65 1025.17 1024.72 1024.31 1023.95 1023.60 1023.23 1022.82 1022.33 1021.78 1021.18 1020.58 1020.03 1019.57 1019.23 1019.01 1018.88 1018.80 1018.72 1018.62 1018.50 1018.35 1018.21 1018.11 1018.10 1018.17 1018.33 1018.55 1018.79 1019.03 1019.23 1019.39
1031.27 1031.08 1030.71 1030.22 1029.68 1029.13 1028.59 1028.06 1027.54 1027.01 1026.48 1025.96 1025.47 1025.02 1024.63 1024.27 1023.92 1023.55 1023.13 1022.63 1022.06 1021.46 1020.85 1020.30 1019.84 1019.50 1019.27 1019.12 1019.01 1018.89 1018.75 1018.58 1018.39 1018.22 1018.11 1018.08 1018.16 1018.33 1018.57 1018.84 1019.10 1019.33 1019.52
1031.31 1031.10 1030.75 1030.30 1029.82 1029.33 1028.85 1028.36 1027.86 1027.33 1026.79 1026.25 1025.74 1025.27 1024.86 1024.49 1024.14 1023.77 1023.35 1022.86 1022.31 1021.72 1021.13 1020.59 1020.13 1019.78 1019.52 1019.32 1019.15 1018.98 1018.78 1018.56 1018.34 1018.15 1018.03 1018.02 1018.11 1018.31 1018.57 1018.86 1019.14 1019.40 1019.62
1031.15 1030.95 1030.64 1030.26 1029.87 1029.47 1029.06 1028.63 1028.16 1027.64 1027.08 1026.51 1025.96 1025.46 1025.01 1024.61 1024.25 1023.88 1023.48 1023.02 1022.50 1021.94 1021.38 1020.85 1020.38 1020.00 1019.68 1019.42 1019.18 1018.93 1018.67 1018.40 1018.15 1017.95 1017.85 1017.86 1017.99 1018.22 1018.51 1018.83 1019.14 1019.42 1019.67
1030.89 1030.71 1030.45 1030.16 1029.87 1029.57 1029.25 1028.88 1028.44 1027.93 1027.35 1026.74 1026.14 1025.58 1025.09 1024.65 1024.27 1023.90 1023.51 1023.08 1022.60 1022.08 1021.55 1021.03 1020.54 1020.11 1019.73 1019.38 1019.05 1018.72 1018.39 1018.08 1017.81 1017.63 1017.56 1017.61 1017.78 1018.05 1018.38 1018.73 1019.06 1019.37 1019.64
1030.63 1030.48 1030.28 1030.08 1029.88 1029.66 1029.42 1029.10 1028.69 1028.18 1027.58 1026.93 1026.28 1025.67 1025.12 1024.65 1024.24 1023.86 1023.48 1023.07 1022.62 1022.13 1021.62 1021.10 1020.59 1020.11 1019.65 1019.21 1018.79 1018.37 1017.98 1017.63 1017.36 1017.20 1017.17 1017.27 1017.49 1017.80 1018.16 1018.54 1018.90 1019.23 1019.53
1030.46 1030.34 1030.19 1030.05 1029.92 1029.77 1029.57 1029.28 1028.88 1028.37 1027.76 1027.08 1026.40 1025.74 1025.16 1024.64 1024.20 1023.80 1023.41 1023.01 1022.57 1022.10 1021.60 1021.08 1020.54 1020.01 1019.48 1018.96 1018.45 1017.97 1017.52 1017.14 1016.86 1016.72 1016.73 1016.87 1017.13 1017.48 1017.88 1018.27 1018.65 1019.00 1019.32
1030.41 1030.32 1030.21 1030.10 1030.00 1029.87 1029.69 1029.41 1029.01 1028.49 1027.87 1027.19 1026.49 1025.82 1025.21 1024.66 1024.19 1023.76 1023.35 1022.93 1022.49 1022.02 1021.52 1020.99 1020.43 1019.86 1019.29 1018.70 1018.13 1017.58 1017.08 1016.68 1016.39 1016.26 1016.28 1016.46 1016.75 1017.12 1017.53 1017.94 1018.34 1018.70 1019.04
1030.48 1030.41 1030.32 1030.22 1030.10 1029.96 1029.75 1029.45 1029.04 1028.52 1027.91 1027.25 1026.57 1025.91 1025.29 1024.74 1024.24 1023.78 1023.33 1022.89 1022.42 1021.94 1021.42 1020.88 1020.32 1019.73 1019.12 1018.50 1017.87 1017.28 1016.74 1016.31 1016.00 1015.86 1015.88 1016.06 1016.35 1016.73 1017.15 1017.57 1017.97 1018.35 1018.72
1030.62 1030.57 1030.48 1030.36 1030.20 1030.00 1029.73 1029.39 1028.96 1028.44 1027.86 1027.24 1026.61 1026.00 1025.41 1024.87 1024.35 1023.86 1023.37 1022.89 1022.39 1021.87 1021.35 1020.80 1020.24 1019.64 1019.03 1018.38 1017.74 1017.11 1016.53 1016.05 1015.70 1015.52 1015.52 1015.67 1015.95 1016.32 1016.74 1017.16 1017.58 1017.97 1018.37
1030.77 1030.74 1030.64 1030.47 1030.25 1029.98 1029.64 1029.24 1028.77 1028.27 1027.72 1027.17 1026.61 1026.07 1025.54 1025.02 1024.50 1023.98 1023.46 1022.92 1022.38 1021.84 1021.30 1020.76 1020.20 1019.62 1019.01 1018.36 1017.70 1017.03 1016.41 1015.87 1015.46 1015.22 1015.16 1015.26 1015.51 1015.87 1016.28 1016.71 1017.15 1017.57 1018.00
1030.85 1030.85 1030.74 1030.54 1030.25 1029.89 1029.47 1029.01 1028.52 1028.01 1027.51 1027.02 1026.54 1026.08 1025.61 1025.13 1024.62 1024.09 1023.53 1022.95 1022.38 1021.81 1021.26 1020.72 1020.18 1019.62 1019.03 1018.38 1017.70 1016.99 1016.31 1015.69 1015.20 1014.87 1014.73 1014.77 1014.98 1015.32 1015.73 1016.19 1016.66 1017.14 1017.61
1030.84 1030.87 1030.77 1030.54 1030.19 1029.76 1029.27 1028.75 1028.22 1027.71 1027.24 1026.80 1026.39 1025.99 1025.57 1025.13 1024.63 1024.09 1023.51 1022.91 1022.31 1021.73 1021.18 1020.65 1020.13 1019.59 1019.01 1018.36 1017.65 1016.89 1016.14 1015.43 1014.83 1014.40 1014.17 1014.14 1014.30 1014.63 1015.06 1015.57 1016.10 1016.64 1017.17
1030.71 1030.79 1030.70 1030.47 1030.10 1029.62 1029.08 1028.51 1027.94 1027.41 1026.94 1026.52 1026.13 1025.76 1025.38 1024.95 1024.47 1023.93 1023.34 1022.73 1022.12 1021.54 1020.99 1020.49 1019.99 1019.47 1018.89 1018.23 1017.49 1016.67 1015.83 1015.02 1014.30 1013.76 1013.42 1013.32 1013.45 1013.77 1014.24 1014.81 1015.42 1016.05 1016.66
1030.48 1030.60 1030.55 1030.34 1029.98 1029.50 1028.93 1028.32 1027.71 1027.14 1026.63 1026.18 1025.78 1025.40 1025.01 1024.58 1024.09 1023.55 1022.97 1022.36 1021.76 1021.20 1020.68 1020.19 1019.71 1019.21 1018.64 1017.96 1017.18 1016.30 1015.37 1014.45 1013.62 1012.95 1012.51 1012.34 1012.42 1012.74 1013.25 1013.90 1014.61 1015.34 1016.05
1030.16 1030.31 1030.32 1030.16 1029.85 1029.39 1028.83 1028.21 1027.56 1026.93 1026.35 1025.83 1025.35 1024.91 1024.47 1024.00 1023.50 1022.96 1022.39 1021.81 1021.24 1020.70 1020.21 1019.75 1019.30 1018.81 1018.24 1017.55 1016.73 1015.80 1014.79 1013.77 1012.82 1012.04 1011.50 1011.24 1011.27 1011.58 1012.13 1012.84 1013.65 1014.49 1015.32
1029.75 1029.93 1029.99 1029.91 1029.68 1029.29 1028.78 1028.16 1027.48 1026.78 1026.10 1025.47 1024.87 1024.32 1023.80 1023.28 1022.75 1022.21 1021.65 1021.10 1020.56 1020.07 1019.61 1019.18 1018.74 1018.27 1017.70 1017.02 1016.18 1015.22 1014.15 1013.06 1012.02 1011.13 1010.48 1010.12 1010.08 1010.36 1010.91 1011.67 1012.56 1013.51 1014.45
1029.25 1029.45 1029.57 1029.58 1029.45 1029.17 1028.72 1028.14 1027.44 1026.68 1025.89 1025.12 1024.39 1023.72 1023.09 1022.49 1021.92 1021.37 1020.83 1020.30 1019.80 1019.32 1018.89 1018.47 1018.05 1017.60 1017.05 1016.38 1015.57 1014.60 1013.53 1012.39 1011.29 1010.31 1009.54 1009.07 1008.93 1009.13 1009.65 1010.42 1011.37 1012.40 1013.44
1028.69 1028.87 1029.03 1029.14 1029.13 1028.96 1028.62 1028.09 1027.39 1026.58 1025.70 1024.81 1023.94 1023.14 1022.40 1021.73 1021.12 1020.54 1020.00 1019.48 1018.98 1018.51 1018.06 1017.64 1017.22 1016.77 1016.26 1015.63 1014.88 1013.97 1012.94 1011.82 1010.69 1009.64 1008.77 1008.17 1007.90 1007.98 1008.40 1009.13 1010.08 1011.17 1012.30
1028.05 1028.19 1028.39 1028.58 1028.68 1028.64 1028.40 1027.94 1027.28 1026.45 1025.50 1024.51 1023.54 1022.63 1021.81 1021.08 1020.42 1019.81 1019.24 1018.69 1018.15 1017.63 1017.13 1016.66 1016.20 1015.75 1015.27 1014.72 1014.06 1013.27 1012.33 1011.29 1010.19 1009.11 1008.15 1007.42 1006.99 1006.91 1007.19 1007.82 1008.74 1009.85 1011.06
1027.36 1027.44 1027.65 1027.89 1028.10 1028.17 1028.04 1027.67 1027.05 1026.23 1025.26 1024.23 1023.20 1022.22 1021.34 1020.56 1019.86 1019.21 1018.58 1017.95 1017.31 1016.67 1016.05 1015.47 1014.94 1014.46 1014.01 1013.54 1013.02 1012.39 1011.62 1010.71 1009.69 1008.63 1007.62 1006.77 1006.17 1005.91 1006.03 1006.52 1007.36 1008.46 1009.72
Thickness
5677 5677 5678 5681 5684 5687 5689 5690 5691 5693 5694 5696 5697 5698 5699 5700 5701 5702 5702 5703 5704 5705 5705 5706 5706 5707 5707 5708 5708 5709 5709 5709 5709 5709 5709 5709 5709 5709 5709 5709 5710 5709 5707
5672 5674 5675 5678 5681 5684 5686 5687 5688 5689 5690 5692 5693 5694 5695 5695 5696 5698 5698 5699 5700 5701 5701 5702 5702 5703 5704 5704 5704 5705 5705 5705 5705 5706 5706 5706 5706 5706 5705 5706 5706 5706 5705
5669 5671 5672 5674 5677 5680 5682 5683 5684 5685 5686 5687 5689 5690 5691 5692 5692 5693 5694 5695 5696 5696 5697 5697 5698 5698 5699 5700 5700 5700 5701 5701 5702 5703 5704 5705 5704 5702 5702 5702 5702 5702 5702
5665 5667 5668 5670 5673 5675 5677 5679 5680 5681 5682 5683 5684 5685 5686 5687 5688 5689 5689 5690 5691 5692 5692 5693 5693 5694 5695 5696 5696 5697 5697 5697 5698 5701 5703 5703 5702 5699 5699 5699 5699 5699 5698
5660 5662 5664 5665 5668 5670 5672 5674 5675 5677 5678 5679 5679 5680 5681 5682 5684 5684 5685 5685 5686 5687 5688 5688 5689 5689 5690 5691 5692 5692 5693 5694 5695 5698 5699 5699 5698 5696 5696 5696 5696 5696 5695
5655 5657 5658 5660 5662 5665 5667 5669 5670 5672 5673 5674 5675 5675 5676 5677 5678 5679 5680 5680 5681 5682 5683 5684 5684 5685 5686 5687 5687 5688 5689 5690 5693 5695 5696 5696 5695 5693 5693 5693 5693 5693 5692
5650 5651 5652 5654 5656 5659 5661 5663 5664 5666 5667 5668 5669 5670 5671 5671 5673 5673 5674 5675 5675 5676 5677 5678 5679 5680 5681 5682 5683 5683 5684 5686 5690 5691 5692 5692 5691 5690 5690 5690 5690 5690 5689
5643 5644 5646 5647 5649 5652 5655 5657 5658 5660 5661 5662 5664 5664 5665 5666 5667 5667 5668 5669 5669 5670 5672 5673 5674 5675 5676 5677 5678 5678 5680 5682 5685 5687 5687 5687 5687 5686 5686 5687 5687 5686 5686
5636 5638 5639 5641 5643 5645 5648 5650 5652 5653 5655 5656 5657 5658 5659 5660 5660 5661 5662 5663 5663 5665 5666 5667 5668 5670 5671 5671 5673 5674 5675 5678 5681 5682 5683 5683 5682 5683 5683 5683 5683 5683 5683
5629 5631 5633 5634 5636 5638 5640 5643 5645 5647 5648 5649 5650 5652 5653 5654 5654 5655 5655 5656 5657 5659 5660 5661 5662 5663 5665 5666 5667 5669 5671 5673 5676 5677 5678 5678 5678 5678 5679 5679 5679 5680 5679
5621 5623 5625 5627 5629 5631 5633 5635 5638 5640 5641 5642 5643 5645 5646 5648 5649 5649 5649 5650 5651 5652 5653 5654 5655 5657 5659 5660 5662 5663 5666 5670 5671 5672 5673 5673 5674 5674 5675 5675 5676 5676 5676
5613 5614 5616 5619 5621 5623 5626 5628 5630 5632 5634 5636 5636 5637 5639 5641 5642 5643 5643 5643 5644 5645 5646 5647 5648 5650 5653 5655 5656 5658 5662 5664 5665 5666 5667 5667 5668 5669 5670 5671 5671 5672 5672
5602 5604 5607 5609 5612 5615 5617 5620 5622 5624 5626 5628 5629 5630 5631 5633 5634 5635 5636 5636 5637 5638 5639 5639 5641 5644 5646 5648 5650 5652 5655 5657 5659 5660 5661 5661 5663 5664 5665 5666 5667 5667 5668
5591 5594 5596 5599 5602 5605 5607 5611 5613 5615 5617 5619 5620 5621 5623 5624 5626 5627 5628 5629 5629 5630 5631 5632 5634 5636 5638 5640 5642 5645 5647 5650 5652 5654 5655 5656 5657 5659 5660 5662 5663 5663 5663
5580 5583 5585 5587 5591 5595 5598 5601 5604 5606 5607 5609 5610 5612 5614 5615 5617 5618 5619 5620 5621 5622 5623 5624 5626 5628 5630 5632 5634 5637 5640 5643 5645 5647 5649 5650 5651 5653 5655 5656 5658 5658 5659
5569 5571 5574 5576 5580 5584 5587 5590 5593 5595 5597 5599 5601 5602 5603 5605 5607 5608 5610 5611 5612 5613 5614 5615 5617 5619 5621 5623 5626 5628 5631 5634 5638 5641 5643 5645 5646 5647 5649 5651 5653 5653 5654
5557 5559 5562 5565 5568 5572 5576 5579 5582 5584 5586 5588 5590 5591 5592 5594 5596 5598 5600 5601 5602 5603 5605 5606 5607 5609 5611 5614 5617 5619 5622 5626 5629 5633 5636 5638 5640 5641 5643 5645 5647 5648 5649
5544 5547 5550 5553 5556 5560 5563 5567 5571 5573 5575 5577 5579 5581 5582 5583 5584 5586 5588 5590 5591 5593 5595 5596 5598 5600 5602 5604 5607 5610 5613 5617 5621 5625 5628 5631 5633 5636 5637 5638 5640 5642 5643
5532 5536 5538 5541 5545 5548 5551 5555 5559 5562 5564 5566 5568 5570 5570 5571 5573 5575 5577 5579 5580 5583 5584 5586 5588 5590 5592 5594 5597 5601 5604 5608 5612 5615 5619 5623 5626 5628 5630 5632 5634 5636 5637
5522 5524 5527 5529 5532 5536 5539 5543 5547 5550 5552 5554 5556 5558 5559 5560 5562 5563 5565 5567 5569 5572 5574 5576 5577 5579 5581 5584 5587 5591 5595 5599 5603 5607 5611 5614 5617 5620 5623 5625 5627 5629 5631
5512 5514 5516 5518 5521 5523 5527 5531 5536 5540 5541 5543 5545 5546 5547 5548 5550 5551 5553 5556 5557 5560 5562 5564 5567 5569 5571 5573 5576 5581 5586 5591 5595 5599 5602 5606 5609 5612 5615 5618 5620 5623 5625
5501 5503 5505 5507 5509 5511 5513 5516 5522 5525 5528 5531 5532 5534 5536 5537 5538 5539 5541 5544 5546 5548 5551 5552 5555 5558 5560 5562 5565 5570 5576 5583 5586 5590 5593 5596 5600 5604 5607 5610 5613 5615 5617
5491 5492 5493 5495 5497 5499 5500 5504 5508 5511 5515 5519 5521 5523 5525 5525 5526 5527 5529 5532 5534 5537 5539 5540 5542 5546 5549 5551 5554 5558 5564 5572 5576 5581 5584 5587 5590 5594 5598 5601 5604 5607 5610
5481 5481 5482 5483 5484 5486 5488 5492 5495 5500 5505 5507 5509 5511 5513 5514 5514 5516 5518 5519 5522 5525 5527 5529 5530 5533 5537 5540 5542 5546 5552 5558 5561 5569 5574 5578 5581 5584 5588 5592 5595 5598 5601
5471 5471 5471 5472 5473 5474 5476 5479 5482 5487 5490 5493 5496 5499 5501 5502 5503 5504 5505 5507 5510 5513 5515 5517 5519 5521 5525 5529 5531 5534 5538 5543 5549 5554 5563 5568 5570 5574 5578 5581 5586 5590 5592
5461 5461 5461 5462 5462 5463 5465 5467 5470 5473 5477 5481 5484 5487 5489 5491 5492 5493 5494 5496 5499 5501 5504 5506 5508 5510 5513 5517 5520 5523 5527 5531 5536 5542 5550 5556 5560 5565 5568 5572 5576 5581 5584